Regional Weather Roundup
Issued by NWS

Home | Current Version | Previous Version | Text Only | Print | Product List | Glossary On
Versions: 1 2 3 4 5 6 7 8 9 10 11 12 13 14 15 16 17 18 19 20 21 22 23 24 25 26 27 28 29 30 31 32 33 34 35 36 37 38 39 40 41 42 43 44 45 46 47 48 49 50
000
ASUS43 KFSD 192110
RWRSD

WEATHER ROUNDUP FOR SOUTH DAKOTA
NATIONAL WEATHER SERVICE SIOUX FALLS SD
400 PM CDT THU APR 19 2018

NOTE: "FAIR" INDICATES FEW OR NO CLOUDS BELOW 12,000 FEET WITH NO
SIGNIFICANT WEATHER AND/OR OBSTRUCTIONS TO VISIBILITY.


SDZ001>005-009-010-012>017-192200-
NORTHWEST AND NORTH CENTRAL SOUTH DAKOTA

CITY           SKY/WX    TMP DP  RH WIND       PRES   REMARKS
BUFFALO          N/A     58  28  32 SE20G30   30.16
FAITH            N/A     54  32  43 SE15G21   30.28F
MOBRIDGE       FAIR      56  31  38 SE12      30.33F
$$

SDZ012>016-024>037-041>051-057-063-072>074-192200-
SOUTHWEST AND SOUTH CENTRAL SOUTH DAKOTA

CITY           SKY/WX    TMP DP  RH WIND       PRES   REMARKS
RAPID CTY ARPT FAIR      58  31  35 SE17G24   30.21F
PIERRE         FAIR      52  31  44 SE16      30.36F
CUSTER         FAIR      48  23  37 SE10G23   30.19F
ELLSWORTH AFB  MOSUNNY   58  31  37 SE17G26   30.20F
PHILIP         FAIR      55  31  39 SE18      30.28F
PINE RIDGE     FAIR      60  30  32 SE16G24   30.21F
SPEARFISH      FAIR      61  28  29 S18G28    30.15F
WINNER         FAIR      47  29  49 SE12      30.38F
$$

SDZ004>011-016>023-039-040-192200-
NORTHEAST SOUTH DAKOTA

CITY           SKY/WX    TMP DP  RH WIND       PRES   REMARKS
ABERDEEN       FAIR      56  30  37 S9        30.40F
WATERTOWN      FAIR      49  29  46 W8        30.41F
BROOKINGS      FAIR      48  20  32 S6        30.44F
SISSETON         N/A     54  26  34 VRB5      30.41F
$$

SDZ017-020-022-023-036>040-048>070-192200-
SOUTHEAST SOUTH DAKOTA

CITY           SKY/WX    TMP DP  RH WIND       PRES   REMARKS
SIOUX FALLS    FAIR      48  27  44 CALM      30.45F
HURON          FAIR      45  27  49 S8        30.43F
CHAMBERLAIN    FAIR      48  30  48 SE13G18   30.41S
MITCHELL       FAIR      44  34  67 E5        30.45F
YANKTON        FAIR      50  28  42 NE8       30.43F
$$

ABBREVIATIONS USED IN REMARKS
   TC - TEMPERATURE IN CELSIUS
  WCI - WIND CHILL INDEX
   HX - HEAT INDEX
  VSB - VISIBILITY





USA.gov is the U.S. government's official web portal to all federal, state and local government web resources and services.